Year,Month,Day,Hour,Minute,Value (Times are PST for temperature in C)
2014,08,23,00,00,16.90
2014,08,23,00,01,16.90
2014,08,23,00,02,16.80
2014,08,23,00,03,16.80
2014,08,23,00,04,16.80
2014,08,23,00,05,16.80
2014,08,23,00,06,16.80
2014,08,23,00,07,16.80
2014,08,23,00,08,16.80
2014,08,23,00,09,16.80
2014,08,23,00,10,16.80
2014,08,23,00,11,16.80
2014,08,23,00,12,16.80
2014,08,23,00,13,16.70
2014,08,23,00,14,16.60
2014,08,23,00,15,16.60
2014,08,23,00,16,16.60
2014,08,23,00,17,16.50
2014,08,23,00,18,16.50
2014,08,23,00,19,16.50
2014,08,23,00,20,16.50
2014,08,23,00,21,16.50
2014,08,23,00,22,16.50
2014,08,23,00,23,16.60
2014,08,23,00,24,16.60
2014,08,23,00,25,16.70
2014,08,23,00,26,16.80
2014,08,23,00,27,16.90
2014,08,23,00,28,16.90
2014,08,23,00,29,17.00
2014,08,23,00,30,17.00
2014,08,23,00,31,17.10
2014,08,23,00,32,17.10
2014,08,23,00,33,17.10
2014,08,23,00,34,17.00
2014,08,23,00,35,16.90
2014,08,23,00,36,16.80
2014,08,23,00,37,16.70
2014,08,23,00,38,16.60
2014,08,23,00,39,16.60
2014,08,23,00,40,16.60
2014,08,23,00,41,16.50
2014,08,23,00,42,16.40
2014,08,23,00,43,16.40
2014,08,23,00,44,16.40
2014,08,23,00,45,16.40
2014,08,23,00,46,16.50
2014,08,23,00,47,16.50
2014,08,23,00,48,16.50
2014,08,23,00,49,16.50
2014,08,23,00,50,16.60
2014,08,23,00,51,16.60
2014,08,23,00,52,16.60
2014,08,23,00,53,16.60
2014,08,23,00,54,16.70
2014,08,23,00,55,16.70
2014,08,23,00,56,16.80
2014,08,23,00,57,16.80
2014,08,23,00,58,16.80
2014,08,23,00,59,16.90
2014,08,23,01,00,16.90
2014,08,23,01,01,16.90
2014,08,23,01,02,16.90
2014,08,23,01,03,16.90
2014,08,23,01,04,16.90
2014,08,23,01,05,16.90
2014,08,23,01,06,16.90
2014,08,23,01,07,16.90
2014,08,23,01,08,16.90
2014,08,23,01,09,16.80
2014,08,23,01,10,16.80
2014,08,23,01,11,16.80
2014,08,23,01,12,16.70
2014,08,23,01,13,16.70
2014,08,23,01,14,16.70
2014,08,23,01,15,16.70
2014,08,23,01,16,16.60
2014,08,23,01,17,16.60
2014,08,23,01,18,16.60
2014,08,23,01,19,16.50
2014,08,23,01,20,16.50
2014,08,23,01,21,16.40
2014,08,23,01,22,16.40
2014,08,23,01,23,16.40
2014,08,23,01,24,16.30
2014,08,23,01,25,16.30
2014,08,23,01,26,16.30
2014,08,23,01,27,16.30
2014,08,23,01,28,16.30
2014,08,23,01,29,16.30
2014,08,23,01,30,16.30
2014,08,23,01,31,16.30
2014,08,23,01,32,16.30
2014,08,23,01,33,16.30
2014,08,23,01,34,16.30
2014,08,23,01,35,16.40
2014,08,23,01,36,16.40
2014,08,23,01,37,16.50
2014,08,23,01,38,16.60
2014,08,23,01,39,16.70
2014,08,23,01,40,16.80
2014,08,23,01,41,16.80
2014,08,23,01,42,16.90
2014,08,23,01,43,17.00
2014,08,23,01,44,17.00
2014,08,23,01,45,17.10
2014,08,23,01,46,17.10
2014,08,23,01,47,17.10
2014,08,23,01,48,17.10
2014,08,23,01,49,17.10
2014,08,23,01,50,17.10
2014,08,23,01,51,17.00
2014,08,23,01,52,16.90
2014,08,23,01,53,16.70
2014,08,23,01,54,16.60
2014,08,23,01,55,16.50
2014,08,23,01,56,16.40
2014,08,23,01,57,16.30
2014,08,23,01,58,16.20
2014,08,23,01,59,16.00
2014,08,23,02,00,15.90
2014,08,23,02,01,15.80
2014,08,23,02,02,15.70
2014,08,23,02,03,15.60
2014,08,23,02,04,15.50
2014,08,23,02,05,15.50
2014,08,23,02,06,15.50
2014,08,23,02,07,15.50
2014,08,23,02,08,15.50
2014,08,23,02,09,15.40
2014,08,23,02,10,15.40
2014,08,23,02,11,15.40
2014,08,23,02,12,15.40
2014,08,23,02,13,15.30
2014,08,23,02,14,15.30
2014,08,23,02,15,15.30
2014,08,23,02,16,15.30
2014,08,23,02,17,15.20
2014,08,23,02,18,15.20
2014,08,23,02,19,15.10
2014,08,23,02,20,15.10
2014,08,23,02,21,15.10
2014,08,23,02,22,15.10
2014,08,23,02,23,15.10
2014,08,23,02,24,15.10
2014,08,23,02,25,15.20
2014,08,23,02,26,15.20
2014,08,23,02,27,15.20
2014,08,23,02,28,15.30
2014,08,23,02,29,15.30
2014,08,23,02,30,15.30
2014,08,23,02,31,15.30
2014,08,23,02,32,15.30
2014,08,23,02,33,15.20
2014,08,23,02,34,15.20
2014,08,23,02,35,15.20
2014,08,23,02,36,15.10
2014,08,23,02,37,15.10
2014,08,23,02,38,15.00
2014,08,23,02,39,15.00
2014,08,23,02,40,15.00
2014,08,23,02,41,15.00
2014,08,23,02,42,15.10
2014,08,23,02,43,15.10
2014,08,23,02,44,15.10
2014,08,23,02,45,15.10
2014,08,23,02,46,15.10
2014,08,23,02,47,15.10
2014,08,23,02,48,15.10
2014,08,23,02,49,15.10
2014,08,23,02,50,15.20
2014,08,23,02,51,15.20
2014,08,23,02,52,15.20
2014,08,23,02,53,15.20
2014,08,23,02,54,15.30
2014,08,23,02,55,15.30
2014,08,23,02,56,15.30
2014,08,23,02,57,15.30
2014,08,23,02,58,15.30
2014,08,23,02,59,15.20
2014,08,23,03,00,15.20
2014,08,23,03,01,15.20
2014,08,23,03,02,15.20
2014,08,23,03,03,15.20
2014,08,23,03,04,15.10
2014,08,23,03,05,15.10
2014,08,23,03,06,15.00
2014,08,23,03,07,15.00
2014,08,23,03,08,15.00
2014,08,23,03,09,15.00
2014,08,23,03,10,15.00
2014,08,23,03,11,15.00
2014,08,23,03,12,15.00
2014,08,23,03,13,15.00
2014,08,23,03,14,15.10
2014,08,23,03,15,15.10
2014,08,23,03,16,15.10
2014,08,23,03,17,15.20
2014,08,23,03,18,15.20
2014,08,23,03,19,15.20
2014,08,23,03,20,15.20
2014,08,23,03,21,15.20
2014,08,23,03,22,15.20
2014,08,23,03,23,15.20
2014,08,23,03,24,15.20
2014,08,23,03,25,15.20
2014,08,23,03,26,15.20
2014,08,23,03,27,15.30
2014,08,23,03,28,15.30
2014,08,23,03,29,15.30
2014,08,23,03,30,15.30
2014,08,23,03,31,15.30
2014,08,23,03,32,15.30
2014,08,23,03,33,15.30
2014,08,23,03,34,15.30
2014,08,23,03,35,15.30
2014,08,23,03,36,15.30
2014,08,23,03,37,15.30
2014,08,23,03,38,15.30
2014,08,23,03,39,15.30
2014,08,23,03,40,15.30
2014,08,23,03,41,15.30
2014,08,23,03,42,15.30
2014,08,23,03,43,15.30
2014,08,23,03,44,15.30
2014,08,23,03,45,15.30
2014,08,23,03,46,15.30
2014,08,23,03,47,15.20
2014,08,23,03,48,15.20
2014,08,23,03,49,15.20
2014,08,23,03,50,15.20
2014,08,23,03,51,15.30
2014,08,23,03,52,15.30
2014,08,23,03,53,15.30
2014,08,23,03,54,15.30
2014,08,23,03,55,15.30
2014,08,23,03,56,15.30
2014,08,23,03,57,15.30
2014,08,23,03,58,15.30
2014,08,23,03,59,15.30
2014,08,23,04,00,15.30
2014,08,23,04,01,15.30
2014,08,23,04,02,15.20
2014,08,23,04,03,15.20
2014,08,23,04,04,15.20
2014,08,23,04,05,15.20
2014,08,23,04,06,15.20
2014,08,23,04,07,15.20
2014,08,23,04,08,15.20
2014,08,23,04,09,15.20
2014,08,23,04,10,15.20
2014,08,23,04,11,15.20
2014,08,23,04,12,15.20
2014,08,23,04,13,15.20
2014,08,23,04,14,15.20
2014,08,23,04,15,15.30
2014,08,23,04,16,15.30
2014,08,23,04,17,15.30
2014,08,23,04,18,15.30
2014,08,23,04,19,15.30
2014,08,23,04,20,15.30
2014,08,23,04,21,15.30
2014,08,23,04,22,15.30
2014,08,23,04,23,15.30
2014,08,23,04,24,15.30
2014,08,23,04,25,15.30
2014,08,23,04,26,15.30
2014,08,23,04,27,15.20
2014,08,23,04,28,15.20
2014,08,23,04,29,15.20
2014,08,23,04,30,15.30
2014,08,23,04,31,15.30
2014,08,23,04,32,15.30
2014,08,23,04,33,15.30
2014,08,23,04,34,15.30
2014,08,23,04,35,15.30
2014,08,23,04,36,15.30
2014,08,23,04,37,15.30
2014,08,23,04,38,15.30
2014,08,23,04,39,15.30
2014,08,23,04,40,15.30
2014,08,23,04,41,15.30
2014,08,23,04,42,15.30
2014,08,23,04,43,15.20
2014,08,23,04,44,15.20
2014,08,23,04,45,15.20
2014,08,23,04,46,15.10
2014,08,23,04,47,15.10
2014,08,23,04,48,15.10
2014,08,23,04,49,15.10
2014,08,23,04,50,15.20
2014,08,23,04,51,15.20
2014,08,23,04,52,15.20
2014,08,23,04,53,15.30
2014,08,23,04,54,15.30
2014,08,23,04,55,15.30
2014,08,23,04,56,15.30
2014,08,23,04,57,15.30
2014,08,23,04,58,15.30
2014,08,23,04,59,15.30
2014,08,23,05,00,15.30
2014,08,23,05,01,15.30
2014,08,23,05,02,15.30
2014,08,23,05,03,15.30
2014,08,23,05,04,15.30
2014,08,23,05,05,15.30
2014,08,23,05,06,15.30
2014,08,23,05,07,15.30
2014,08,23,05,08,15.30
2014,08,23,05,09,15.30
2014,08,23,05,10,15.30
2014,08,23,05,11,15.30
2014,08,23,05,12,15.30
2014,08,23,05,13,15.30
2014,08,23,05,14,15.30
2014,08,23,05,15,15.20
2014,08,23,05,16,15.20
2014,08,23,05,17,15.10
2014,08,23,05,18,15.10
2014,08,23,05,19,15.10
2014,08,23,05,20,15.10
2014,08,23,05,21,15.20
2014,08,23,05,22,15.20
2014,08,23,05,23,15.20
2014,08,23,05,24,15.30
2014,08,23,05,25,15.30
2014,08,23,05,26,15.30
2014,08,23,05,27,15.30
2014,08,23,05,28,15.30
2014,08,23,05,29,15.20
2014,08,23,05,30,15.10
2014,08,23,05,31,15.00
2014,08,23,05,32,14.80
2014,08,23,05,33,14.70
2014,08,23,05,34,14.70
2014,08,23,05,35,14.60
2014,08,23,05,36,14.60
2014,08,23,05,37,14.50
2014,08,23,05,38,14.50
2014,08,23,05,39,14.50
2014,08,23,05,40,14.50
2014,08,23,05,41,14.50
2014,08,23,05,42,14.50
2014,08,23,05,43,14.50
2014,08,23,05,44,14.50
2014,08,23,05,45,14.50
2014,08,23,05,46,14.50
2014,08,23,05,47,14.40
2014,08,23,05,48,14.40
2014,08,23,05,49,14.30
2014,08,23,05,50,14.20
2014,08,23,05,51,14.20
2014,08,23,05,52,14.20
2014,08,23,05,53,14.20
2014,08,23,05,54,14.20
2014,08,23,05,55,14.20
2014,08,23,05,56,14.20
2014,08,23,05,57,14.20
2014,08,23,05,58,14.20
2014,08,23,05,59,14.20
2014,08,23,06,00,14.20
2014,08,23,06,01,14.20
2014,08,23,06,02,14.20
2014,08,23,06,03,14.20
2014,08,23,06,04,14.10
2014,08,23,06,05,14.10
2014,08,23,06,06,14.10
2014,08,23,06,07,14.10
2014,08,23,06,08,14.10
2014,08,23,06,09,14.00
2014,08,23,06,10,14.00
2014,08,23,06,11,14.00
2014,08,23,06,12,13.90
2014,08,23,06,13,13.90
2014,08,23,06,14,13.90
2014,08,23,06,15,13.90
2014,08,23,06,16,14.00
2014,08,23,06,17,14.00
2014,08,23,06,18,14.10
2014,08,23,06,19,14.10
2014,08,23,06,20,14.00
2014,08,23,06,21,14.00
2014,08,23,06,22,13.90
2014,08,23,06,23,13.90
2014,08,23,06,24,13.80
2014,08,23,06,25,13.80
2014,08,23,06,26,13.80
2014,08,23,06,27,13.90
2014,08,23,06,28,13.90
2014,08,23,06,29,13.90
2014,08,23,06,30,14.00
2014,08,23,06,31,14.00
2014,08,23,06,32,13.90
2014,08,23,06,33,13.90
2014,08,23,06,34,13.90
2014,08,23,06,35,13.80
2014,08,23,06,36,13.80
2014,08,23,06,37,13.80
2014,08,23,06,38,13.80
2014,08,23,06,39,13.90
2014,08,23,06,40,13.90
2014,08,23,06,41,13.90
2014,08,23,06,42,14.00
2014,08,23,06,43,14.00
2014,08,23,06,44,14.10
2014,08,23,06,45,14.10
2014,08,23,06,46,14.10
2014,08,23,06,47,14.10
2014,08,23,06,48,14.10
2014,08,23,06,49,14.10
2014,08,23,06,50,14.10
2014,08,23,06,51,14.10
2014,08,23,06,52,14.10
2014,08,23,06,53,14.10
2014,08,23,06,54,14.20
2014,08,23,06,55,14.20
2014,08,23,06,56,14.30
2014,08,23,06,57,14.30
2014,08,23,06,58,14.30
2014,08,23,06,59,14.30
2014,08,23,07,00,14.40
2014,08,23,07,01,14.30
2014,08,23,07,02,14.30
2014,08,23,07,03,14.30
2014,08,23,07,04,14.30
2014,08,23,07,05,14.30
2014,08,23,07,06,14.30
2014,08,23,07,07,14.40
2014,08,23,07,08,14.50
2014,08,23,07,09,14.50
2014,08,23,07,10,14.60
2014,08,23,07,11,14.70
2014,08,23,07,12,14.70
2014,08,23,07,13,14.70
2014,08,23,07,14,14.80
2014,08,23,07,15,14.80
2014,08,23,07,16,14.80
2014,08,23,07,17,14.80
2014,08,23,07,18,14.80
2014,08,23,07,19,14.80
2014,08,23,07,20,14.70
2014,08,23,07,21,14.70
2014,08,23,07,22,14.70
2014,08,23,07,23,14.70
2014,08,23,07,24,14.70
2014,08,23,07,25,14.70
2014,08,23,07,26,14.70
2014,08,23,07,27,14.70
2014,08,23,07,28,14.70
2014,08,23,07,29,14.80
2014,08,23,07,30,14.90
2014,08,23,07,31,14.90
2014,08,23,07,32,15.00
2014,08,23,07,33,15.10
2014,08,23,07,34,15.10
2014,08,23,07,35,15.10
2014,08,23,07,36,15.10
2014,08,23,07,37,15.10
2014,08,23,07,38,15.20
2014,08,23,07,39,15.20
2014,08,23,07,40,15.20
2014,08,23,07,41,15.20
2014,08,23,07,42,15.30
2014,08,23,07,43,15.30
2014,08,23,07,44,15.30
2014,08,23,07,45,15.40
2014,08,23,07,46,15.40
2014,08,23,07,47,15.50
2014,08,23,07,48,15.50
2014,08,23,07,49,15.60
2014,08,23,07,50,15.70
2014,08,23,07,51,15.80
2014,08,23,07,52,15.80
2014,08,23,07,53,15.80
2014,08,23,07,54,15.90
2014,08,23,07,55,16.00
2014,08,23,07,56,16.00
2014,08,23,07,57,16.10
2014,08,23,07,58,16.10
2014,08,23,07,59,16.20
2014,08,23,08,00,16.20
2014,08,23,08,01,16.30
2014,08,23,08,02,16.30
2014,08,23,08,03,16.40
2014,08,23,08,04,16.40
2014,08,23,08,05,16.50
2014,08,23,08,06,16.60
2014,08,23,08,07,16.60
2014,08,23,08,08,16.70
2014,08,23,08,09,16.70
2014,08,23,08,10,16.80
2014,08,23,08,11,16.80
2014,08,23,08,12,16.80
2014,08,23,08,13,16.90
2014,08,23,08,14,16.90
2014,08,23,08,15,16.90
2014,08,23,08,16,16.90
2014,08,23,08,17,17.00
2014,08,23,08,18,17.00
2014,08,23,08,19,17.10
2014,08,23,08,20,17.10
2014,08,23,08,21,17.20
2014,08,23,08,22,17.20
2014,08,23,08,23,17.20
2014,08,23,08,24,17.30
2014,08,23,08,25,17.40
2014,08,23,08,26,17.40
2014,08,23,08,27,17.50
2014,08,23,08,28,17.60
2014,08,23,08,29,17.60
2014,08,23,08,30,17.70
2014,08,23,08,31,17.80
2014,08,23,08,32,17.90
2014,08,23,08,33,18.00
2014,08,23,08,34,18.10
2014,08,23,08,35,18.20
2014,08,23,08,36,18.30
2014,08,23,08,37,18.40
2014,08,23,08,38,18.50
2014,08,23,08,39,18.60
2014,08,23,08,40,18.70
2014,08,23,08,41,18.80
2014,08,23,08,42,18.90
2014,08,23,08,43,19.00
2014,08,23,08,44,19.00
2014,08,23,08,45,19.10
2014,08,23,08,46,19.10
2014,08,23,08,47,19.10
2014,08,23,08,48,19.20
2014,08,23,08,49,19.20
2014,08,23,08,50,19.30
2014,08,23,08,51,19.30
2014,08,23,08,52,19.40
2014,08,23,08,53,19.50
2014,08,23,08,54,19.60
2014,08,23,08,55,19.60
2014,08,23,08,56,19.70
2014,08,23,08,57,19.70
2014,08,23,08,58,19.80
2014,08,23,08,59,19.80
2014,08,23,09,00,19.80
2014,08,23,09,01,19.80
2014,08,23,09,02,19.90
2014,08,23,09,03,19.90
2014,08,23,09,04,19.90
2014,08,23,09,05,19.90
2014,08,23,09,06,19.90
2014,08,23,09,07,20.00
2014,08,23,09,08,20.00
2014,08,23,09,09,20.00
2014,08,23,09,10,20.10
2014,08,23,09,11,20.10
2014,08,23,09,12,20.10
2014,08,23,09,13,20.20
2014,08,23,09,14,20.20
2014,08,23,09,15,20.20
2014,08,23,09,16,20.20
2014,08,23,09,17,20.20
2014,08,23,09,18,20.30
2014,08,23,09,19,20.30
2014,08,23,09,20,20.30
2014,08,23,09,21,20.40
2014,08,23,09,22,20.40
2014,08,23,09,23,20.40
2014,08,23,09,24,20.40
2014,08,23,09,25,20.30
2014,08,23,09,26,20.30
2014,08,23,09,27,20.20
2014,08,23,09,28,20.20
2014,08,23,09,29,20.20
2014,08,23,09,30,20.30
2014,08,23,09,31,20.30
2014,08,23,09,32,20.40
2014,08,23,09,33,20.40
2014,08,23,09,34,20.50
2014,08,23,09,35,20.50
2014,08,23,09,36,20.50
2014,08,23,09,37,20.50
2014,08,23,09,38,20.60
2014,08,23,09,39,20.60
2014,08,23,09,40,20.60
2014,08,23,09,41,20.60
2014,08,23,09,42,20.70
2014,08,23,09,43,20.70
2014,08,23,09,44,20.70
2014,08,23,09,45,20.70
2014,08,23,09,46,20.70
2014,08,23,09,47,20.70
2014,08,23,09,48,20.70
2014,08,23,09,49,20.70
2014,08,23,09,50,20.70
2014,08,23,09,51,20.70
2014,08,23,09,52,20.70
2014,08,23,09,53,20.70
2014,08,23,09,54,20.70
2014,08,23,09,55,20.70
2014,08,23,09,56,20.80
2014,08,23,09,57,20.80
2014,08,23,09,58,20.80
2014,08,23,09,59,20.80
2014,08,23,10,00,20.80
2014,08,23,10,01,20.80
2014,08,23,10,02,20.80
2014,08,23,10,03,20.90
2014,08,23,10,04,20.90
2014,08,23,10,05,20.90
2014,08,23,10,06,20.90
2014,08,23,10,07,20.80
2014,08,23,10,08,20.80
2014,08,23,10,09,20.80
2014,08,23,10,10,20.80
2014,08,23,10,11,20.80
2014,08,23,10,12,20.90
2014,08,23,10,13,20.90
2014,08,23,10,14,20.90
2014,08,23,10,15,20.90
2014,08,23,10,16,20.90
2014,08,23,10,17,20.90
2014,08,23,10,18,20.80
2014,08,23,10,19,20.80
2014,08,23,10,20,20.80
2014,08,23,10,21,20.80
2014,08,23,10,22,20.80
2014,08,23,10,23,20.80
2014,08,23,10,24,20.80
2014,08,23,10,25,20.80
2014,08,23,10,26,20.80
2014,08,23,10,27,20.90
2014,08,23,10,28,20.90
2014,08,23,10,29,20.90
2014,08,23,10,30,21.00
2014,08,23,10,31,21.10
2014,08,23,10,32,21.10
2014,08,23,10,33,21.00
2014,08,23,10,34,20.90
2014,08,23,10,35,20.90
2014,08,23,10,36,20.90
2014,08,23,10,37,20.90
2014,08,23,10,38,20.90
2014,08,23,10,39,20.90
2014,08,23,10,40,20.90
2014,08,23,10,41,20.90
2014,08,23,10,42,21.00
2014,08,23,10,43,21.00
2014,08,23,10,44,21.10
2014,08,23,10,45,21.20
2014,08,23,10,46,21.20
2014,08,23,10,47,21.30
2014,08,23,10,48,21.40
2014,08,23,10,49,21.50
2014,08,23,10,50,21.60
2014,08,23,10,51,21.70
2014,08,23,10,52,21.80
2014,08,23,10,53,21.80
2014,08,23,10,54,21.70
2014,08,23,10,55,21.60
2014,08,23,10,56,21.50
2014,08,23,10,57,21.50
2014,08,23,10,58,21.40
2014,08,23,10,59,21.50
2014,08,23,11,00,21.50
2014,08,23,11,01,21.60
2014,08,23,11,02,21.60
2014,08,23,11,03,21.70
2014,08,23,11,04,21.80
2014,08,23,11,05,21.90
2014,08,23,11,06,21.90
2014,08,23,11,07,22.00
2014,08,23,11,08,22.00
2014,08,23,11,09,22.10
2014,08,23,11,10,22.20
2014,08,23,11,11,22.20
2014,08,23,11,12,22.30
2014,08,23,11,13,22.30
2014,08,23,11,14,22.40
2014,08,23,11,15,22.40
2014,08,23,11,16,22.40
2014,08,23,11,17,22.50
2014,08,23,11,18,22.50
2014,08,23,11,19,22.60
2014,08,23,11,20,22.60
2014,08,23,11,21,22.70
2014,08,23,11,22,22.60
2014,08,23,11,23,22.60
2014,08,23,11,24,22.50
2014,08,23,11,25,22.40
2014,08,23,11,26,22.30
2014,08,23,11,27,22.30
2014,08,23,11,28,22.20
2014,08,23,11,29,22.20
2014,08,23,11,30,22.20
2014,08,23,11,31,22.20
2014,08,23,11,32,22.20
2014,08,23,11,33,22.20
2014,08,23,11,34,22.20
2014,08,23,11,35,22.20
2014,08,23,11,36,22.20
2014,08,23,11,37,22.30
2014,08,23,11,38,22.30
2014,08,23,11,39,22.40
2014,08,23,11,40,22.40
2014,08,23,11,41,22.40
2014,08,23,11,42,22.40
2014,08,23,11,43,22.40
2014,08,23,11,44,22.40
2014,08,23,11,45,22.40
2014,08,23,11,46,22.30
2014,08,23,11,47,22.30
2014,08,23,11,48,22.30
2014,08,23,11,49,22.30
2014,08,23,11,50,22.30
2014,08,23,11,51,22.40
2014,08,23,11,52,22.50
2014,08,23,11,53,22.60
2014,08,23,11,54,22.70
2014,08,23,11,55,22.80
2014,08,23,11,56,22.90
2014,08,23,11,57,22.90
2014,08,23,11,58,23.00
2014,08,23,11,59,23.00
2014,08,23,12,00,23.10
2014,08,23,12,01,23.10
2014,08,23,12,02,23.20
2014,08,23,12,03,23.30
2014,08,23,12,04,23.30
2014,08,23,12,05,23.40
2014,08,23,12,06,23.40
2014,08,23,12,07,23.40
2014,08,23,12,08,23.40
2014,08,23,12,09,23.40
2014,08,23,12,10,23.40
2014,08,23,12,11,23.40
2014,08,23,12,12,23.50
2014,08,23,12,13,23.50
2014,08,23,12,14,23.50
2014,08,23,12,15,23.60
2014,08,23,12,16,23.60
2014,08,23,12,17,23.60
2014,08,23,12,18,23.60
2014,08,23,12,19,23.60
2014,08,23,12,20,23.60
2014,08,23,12,21,23.60
2014,08,23,12,22,23.60
2014,08,23,12,23,23.60
2014,08,23,12,24,23.70
2014,08,23,12,25,23.70
2014,08,23,12,26,23.70
2014,08,23,12,27,23.70
2014,08,23,12,28,23.80
2014,08,23,12,29,23.80
2014,08,23,12,30,23.80
2014,08,23,12,31,23.80
2014,08,23,12,32,23.70
2014,08,23,12,33,23.60
2014,08,23,12,34,23.60
2014,08,23,12,35,23.50
2014,08,23,12,36,23.50
2014,08,23,12,37,23.50
2014,08,23,12,38,23.40
2014,08,23,12,39,23.40
2014,08,23,12,40,23.50
2014,08,23,12,41,23.50
2014,08,23,12,42,23.60
2014,08,23,12,43,23.70
2014,08,23,12,44,23.70
2014,08,23,12,45,23.70
2014,08,23,12,46,23.70
2014,08,23,12,47,23.70
2014,08,23,12,48,23.70
2014,08,23,12,49,23.80
2014,08,23,12,50,23.80
2014,08,23,12,51,23.80
2014,08,23,12,52,23.80
2014,08,23,12,53,23.90
2014,08,23,12,54,24.00
2014,08,23,12,55,24.00
2014,08,23,12,56,24.10
2014,08,23,12,57,24.10
2014,08,23,12,58,24.20
2014,08,23,12,59,24.20
2014,08,23,13,00,24.30
2014,08,23,13,01,24.30
2014,08,23,13,02,24.30
2014,08,23,13,03,24.20
2014,08,23,13,04,24.20
2014,08,23,13,05,24.30
2014,08,23,13,06,24.30
2014,08,23,13,07,24.40
2014,08,23,13,08,24.40
2014,08,23,13,09,24.50
2014,08,23,13,10,24.50
2014,08,23,13,11,24.60
2014,08,23,13,12,24.60
2014,08,23,13,13,24.70
2014,08,23,13,14,24.70
2014,08,23,13,15,24.80
2014,08,23,13,16,24.80
2014,08,23,13,17,24.80
2014,08,23,13,18,24.80
2014,08,23,13,19,24.80
2014,08,23,13,20,24.80
2014,08,23,13,21,24.80
2014,08,23,13,22,24.70
2014,08,23,13,23,24.70
2014,08,23,13,24,24.70
2014,08,23,13,25,24.70
2014,08,23,13,26,24.70
2014,08,23,13,27,24.70
2014,08,23,13,28,24.70
2014,08,23,13,29,24.70
2014,08,23,13,30,24.80
2014,08,23,13,31,24.70
2014,08,23,13,32,24.70
2014,08,23,13,33,24.60
2014,08,23,13,34,24.60
2014,08,23,13,35,24.60
2014,08,23,13,36,24.60
2014,08,23,13,37,24.60
2014,08,23,13,38,24.70
2014,08,23,13,39,24.70
2014,08,23,13,40,24.80
2014,08,23,13,41,24.90
2014,08,23,13,42,24.90
2014,08,23,13,43,24.90
2014,08,23,13,44,24.90
2014,08,23,13,45,24.90
2014,08,23,13,46,24.90
2014,08,23,13,47,24.90
2014,08,23,13,48,24.90
2014,08,23,13,49,24.90
2014,08,23,13,50,24.90
2014,08,23,13,51,25.00
2014,08,23,13,52,25.00
2014,08,23,13,53,25.00
2014,08,23,13,54,24.90
2014,08,23,13,55,24.80
2014,08,23,13,56,24.70
2014,08,23,13,57,24.70
2014,08,23,13,58,24.70
2014,08,23,13,59,24.70
2014,08,23,14,00,24.80
2014,08,23,14,01,24.90
2014,08,23,14,02,25.00
2014,08,23,14,03,25.00
2014,08,23,14,04,25.10
2014,08,23,14,05,25.10
2014,08,23,14,06,25.20
2014,08,23,14,07,25.20
2014,08,23,14,08,25.20
2014,08,23,14,09,25.20
2014,08,23,14,10,25.30
2014,08,23,14,11,25.30
2014,08,23,14,12,25.40
2014,08,23,14,13,25.50
2014,08,23,14,14,25.50
2014,08,23,14,15,25.60
2014,08,23,14,16,25.70
2014,08,23,14,17,25.80
2014,08,23,14,18,25.80
2014,08,23,14,19,25.80
2014,08,23,14,20,25.90
2014,08,23,14,21,25.90
2014,08,23,14,22,25.90
2014,08,23,14,23,25.80
2014,08,23,14,24,25.90
2014,08,23,14,25,25.90
2014,08,23,14,26,25.80
2014,08,23,14,27,25.80
2014,08,23,14,28,25.80
2014,08,23,14,29,25.80
2014,08,23,14,30,25.80
2014,08,23,14,31,25.80
2014,08,23,14,32,25.90
2014,08,23,14,33,25.90
2014,08,23,14,34,25.90
2014,08,23,14,35,26.00
2014,08,23,14,36,26.00
2014,08,23,14,37,26.00
2014,08,23,14,38,26.10
2014,08,23,14,39,26.10
2014,08,23,14,40,26.20
2014,08,23,14,41,26.20
2014,08,23,14,42,26.20
2014,08,23,14,43,26.10
2014,08,23,14,44,26.10
2014,08,23,14,45,26.10
2014,08,23,14,46,26.00
2014,08,23,14,47,26.00
2014,08,23,14,48,26.00
2014,08,23,14,49,25.90
2014,08,23,14,50,26.00
2014,08,23,14,51,26.00
2014,08,23,14,52,26.10
2014,08,23,14,53,26.10
2014,08,23,14,54,26.10
2014,08,23,14,55,26.10
2014,08,23,14,56,26.10
2014,08,23,14,57,26.10
2014,08,23,14,58,26.10
2014,08,23,14,59,26.10
2014,08,23,15,00,26.00
2014,08,23,15,01,25.90
2014,08,23,15,02,25.70
2014,08,23,15,03,25.60
2014,08,23,15,04,25.60
2014,08,23,15,05,25.50
2014,08,23,15,06,25.60
2014,08,23,15,07,25.60
2014,08,23,15,08,25.60
2014,08,23,15,09,25.70
2014,08,23,15,10,25.70
2014,08,23,15,11,25.80
2014,08,23,15,12,25.70
2014,08,23,15,13,25.70
2014,08,23,15,14,25.70
2014,08,23,15,15,25.80
2014,08,23,15,16,25.80
2014,08,23,15,17,25.90
2014,08,23,15,18,25.90
2014,08,23,15,19,26.00
2014,08,23,15,20,25.90
2014,08,23,15,21,25.90
2014,08,23,15,22,25.80
2014,08,23,15,23,25.80
2014,08,23,15,24,25.80
2014,08,23,15,25,25.80
2014,08,23,15,26,25.70
2014,08,23,15,27,25.70
2014,08,23,15,28,25.70
2014,08,23,15,29,25.70
2014,08,23,15,30,25.70
2014,08,23,15,31,25.70
2014,08,23,15,32,25.70
2014,08,23,15,33,25.70
2014,08,23,15,34,25.70
2014,08,23,15,35,25.70
2014,08,23,15,36,25.70
2014,08,23,15,37,25.70
2014,08,23,15,38,25.80
2014,08,23,15,39,25.90
2014,08,23,15,40,25.90
2014,08,23,15,41,25.90
2014,08,23,15,42,25.80
2014,08,23,15,43,25.70
2014,08,23,15,44,25.70
2014,08,23,15,45,25.70
2014,08,23,15,46,25.70
2014,08,23,15,47,25.70
2014,08,23,15,48,25.80
2014,08,23,15,49,25.80
2014,08,23,15,50,25.80
2014,08,23,15,51,25.70
2014,08,23,15,52,25.70
2014,08,23,15,53,25.80
2014,08,23,15,54,25.80
2014,08,23,15,55,25.80
2014,08,23,15,56,25.70
2014,08,23,15,57,25.70
2014,08,23,15,58,25.70
2014,08,23,15,59,25.80
2014,08,23,16,00,25.90
2014,08,23,16,01,26.00
2014,08,23,16,02,26.10
2014,08,23,16,03,26.20
2014,08,23,16,04,26.20
2014,08,23,16,05,26.20
2014,08,23,16,06,26.20
2014,08,23,16,07,26.20
2014,08,23,16,08,26.20
2014,08,23,16,09,26.20
2014,08,23,16,10,26.20
2014,08,23,16,11,26.20
2014,08,23,16,12,26.10
2014,08,23,16,13,26.10
2014,08,23,16,14,26.10
2014,08,23,16,15,26.10
2014,08,23,16,16,26.00
2014,08,23,16,17,26.00
2014,08,23,16,18,26.10
2014,08,23,16,19,26.10
2014,08,23,16,20,26.10
2014,08,23,16,21,26.10
2014,08,23,16,22,26.20
2014,08,23,16,23,26.20
2014,08,23,16,24,26.20
2014,08,23,16,25,26.20
2014,08,23,16,26,26.20
2014,08,23,16,27,26.30
2014,08,23,16,28,26.30
2014,08,23,16,29,26.30
2014,08,23,16,30,26.30
2014,08,23,16,31,26.30
2014,08,23,16,32,26.30
2014,08,23,16,33,26.30
2014,08,23,16,34,26.30
2014,08,23,16,35,26.30
2014,08,23,16,36,26.30
2014,08,23,16,37,26.30
2014,08,23,16,38,26.30
2014,08,23,16,39,26.30
2014,08,23,16,40,26.30
2014,08,23,16,41,26.30
2014,08,23,16,42,26.30
2014,08,23,16,43,26.30
2014,08,23,16,44,26.30
2014,08,23,16,45,26.30
2014,08,23,16,46,26.30
2014,08,23,16,47,26.30
2014,08,23,16,48,26.30
2014,08,23,16,49,26.30
2014,08,23,16,50,26.30
2014,08,23,16,51,26.30
2014,08,23,16,52,26.30
2014,08,23,16,53,26.30
2014,08,23,16,54,26.30
2014,08,23,16,55,26.30
2014,08,23,16,56,26.30
2014,08,23,16,57,26.30
2014,08,23,16,58,26.30
2014,08,23,16,59,26.30
2014,08,23,17,00,26.30
2014,08,23,17,01,26.30
2014,08,23,17,02,26.30
2014,08,23,17,03,26.30
2014,08,23,17,04,26.30
2014,08,23,17,05,26.40
2014,08,23,17,06,26.40
2014,08,23,17,07,26.40
2014,08,23,17,08,26.30
2014,08,23,17,09,26.30
2014,08,23,17,10,26.30
2014,08,23,17,11,26.20
2014,08,23,17,12,26.20
2014,08,23,17,13,26.10
2014,08,23,17,14,26.10
2014,08,23,17,15,26.20
2014,08,23,17,16,26.20
2014,08,23,17,17,26.20
2014,08,23,17,18,26.20
2014,08,23,17,19,26.20